Tracking 29040 objects as of 15-Jun-2024
HD Live streaming from Space Station
objects crossing your sky now

ZY 3

Track ZY 3 now!
10-day predictions
ZY 3 is classified as:


NORAD ID: 38046
Int'l Code: 2012-001A
Perigee: 473.0 km
Apogee: 481.7 km
Inclination: 97.2 °
Period: 94.0 minutes
Semi major axis: 6848 km
RCS: 5.391 m2 (large)
Launch date: January 9, 2012
Source: People's Republic of China (PRC)
Launch site: Taiyaun Space Center, China (TSC)
Your satellite tracking list
Your tracking list is empty




NASA's NSSDC Master Catalog

Two Line Element Set (TLE):
1 38046U 12001A   24166.95360932  .00013548  00000-0  44204-3 0  9999
2 38046  97.2463 228.9518 0006296 139.8588 220.3120 15.31880902690545
Source of the keplerian elements: AFSPC